Overview Statistics Trail Chart Weather Telemetry Raw packets
 

This is the latest recevied weather packets stored in our database for station/object R1ZCU-14. If no packets are shown the sender has not sent any weather packets the latest 10 day(s).

<< 28 29 30 31 32 33 34 >>
Time Temp. Humidity Pressure Rain* Wind** Luminosity Snow
1787922247 12.78° C 61% 1018.6 hPa - - - -
1787921647 12.78° C 62% 1018.7 hPa - - - -
1787921046 12.22° C 60% 1018.7 hPa - - - -
1787920446 12.22° C 60% 1018.8 hPa - - - -
1787919845 12.22° C 60% 1018.9 hPa - - - -
1787919245 12.22° C 60% 1019 hPa - - - -
1787918644 12.22° C 60% 1019.1 hPa - - - -
1787918044 12.22° C 61% 1019.2 hPa - - - -
1787917443 12.22° C 60% 1019.2 hPa - - - -
1787916843 12.22° C 60% 1019.4 hPa - - - -
1787916242 12.22° C 60% 1019.5 hPa - - - -
1787915642 11.67° C 59% 1019.6 hPa - - - -
1787915041 11.67° C 60% 1019.7 hPa - - - -
1787914441 11.11° C 61% 1019.7 hPa - - - -
1787913840 11.11° C 59% 1019.7 hPa - - - -
1787913240 11.67° C 59% 1019.7 hPa - - - -
1787912639 11.11° C 59% 1019.8 hPa - - - -
1787912039 11.11° C 58% 1019.9 hPa - - - -
1787911443 11.67° C 57% 1020 hPa - - - -
1787910838 12.78° C 52% 1019.9 hPa - - - -
1787910237 15.56° C 42% 1020 hPa - - - -
1787909637 22.78° C 24% 1019.3 hPa - - - -
1787909036 24.44° C 22% 1019.4 hPa - - - -
1787908436 23.33° C 23% 1019.3 hPa - - - -
1787907835 24.44° C 23% 1019.4 hPa - - - -

* Rain since midnight (hover to see other rain measurements)
** Current wind speed in m/s (hover to see current wind gust speed)